Change the Weather History Date:

Thursday, February 13, 2014

  Actual Average Record
Temperature  
Mean Temperature 56 °F -  
Max Temperature 72 °F 60 °F 78 °F (2015)
Min Temperature 41 °F 39 °F 24 °F (2004)
Degree Days  
Heating Degree Days 8    
Growing Degree Days 6 (Base 50)    
Moisture  
Dew Point 25 °F    
Average Humidity 31    
Maximum Humidity 48    
Minimum Humidity 17    
Precipitation  
Precipitation 0.00 in - - ()
Sea Level Pressure  
Sea Level Pressure 30.05 in    
Wind  
Wind Speed 2 mph (North)    
Max Wind Speed 6 mph    
Max Gust Speed -    
Visibility 10 miles    
Events      
Averages and records for this station are not official NWS values.
T = Trace of Precipitation, MM = Missing Value Source: NWS Daily Summary

Daily Weather History Graph

Daily Weather History Graph

Search for Another Location

Airport or City:

Trip Planner

Search our weather history database for the weather conditions in past years. The results will help you decide how hot, cold, wet, or windy it might be!

Date:

Astronomy

Feb. 13, 2014 Rise Set
Actual Time 6:29 AM PST 5:19 PM PST
Civil Twilight 6:03 AM PST 5:45 PM PST
Nautical Twilight 5:33 AM PST 6:15 PM PST
Astronomical Twilight 5:03 AM PST 6:45 PM PST
Moon 4:31 PM PST (2/13) 5:25 AM PST (2/13)
Length of Visible Light 11h 42m
Length of Day
10h 49m
Waxing Gibbous, 99% of the Moon is Illuminated
Feb 13
Waxing Gibbous
Feb 14
Full
Feb 22
Last Quarter
Mar 1
New
Mar 8
First Quarter

Hourly Weather History & Observations

Time (PST) Temp. Windchill Dew Point Humidity Pressure Visibility Wind Dir Wind Speed Gust Speed Precip Events Conditions
12:58 AM 51.8 °F - 23.9 °F 34% 30.08 in 10.0 mi North 2.3 mph - N/A   Clear
1:58 AM 47.5 °F - 23.9 °F 40% 30.07 in 10.0 mi NNE 1.2 mph - N/A   Clear
2:58 AM 46.9 °F - 23.4 °F 40% 30.06 in 10.0 mi NNE 2.3 mph - N/A   Clear
3:58 AM 44.1 °F - 22.6 °F 43% 30.08 in 10.0 mi Calm Calm - N/A   Clear
4:58 AM 45.7 °F - 23.5 °F 42% 30.07 in 10.0 mi NW 1.2 mph - N/A   Clear
5:58 AM 43.3 °F - 23.0 °F 45% 30.12 in 10.0 mi North 2.3 mph - N/A   Clear
6:58 AM 41.7 °F 38.8 °F 23.0 °F 47% 30.12 in 10.0 mi North 4.6 mph - N/A   Clear
7:58 AM 43.2 °F 40.5 °F 24.6 °F 48% 30.13 in 10.0 mi SW 4.6 mph - N/A   Clear
8:58 AM 52.3 °F - 24.3 °F 34% 30.14 in 10.0 mi Calm Calm - N/A   Clear
9:58 AM 56.3 °F - 25.3 °F 30% 30.12 in 10.0 mi Calm Calm - N/A   Clear
10:58 AM 62.6 °F - 24.6 °F 24% 30.10 in 10.0 mi NNE 2.3 mph - N/A   Clear
11:58 AM 66.4 °F - 25.7 °F 22% 30.05 in 10.0 mi Calm Calm - N/A   Clear
12:58 PM 70.3 °F - 25.3 °F 19% 30.01 in 10.0 mi SSE 2.3 mph - N/A   Clear
1:58 PM 72.0 °F - 25.2 °F 17% 29.99 in 10.0 mi Variable 2.3 mph - N/A   Clear
2:58 PM 72.0 °F - 25.3 °F 18% 29.99 in 10.0 mi Variable 1.2 mph - N/A   Clear
3:58 PM 72.9 °F - 25.5 °F 17% 29.97 in 10.0 mi South 2.3 mph - N/A   Clear
4:58 PM 72.5 °F - 25.7 °F 17% 29.96 in 10.0 mi Calm Calm - N/A   Clear
5:58 PM 68.9 °F - 25.5 °F 20% 29.98 in 10.0 mi North 1.2 mph - N/A   Clear
6:58 PM 61.0 °F - 25.5 °F 26% 30.00 in 10.0 mi NNE 2.3 mph - N/A   Clear
7:58 PM 59.0 °F - 25.7 °F 28% 30.00 in 10.0 mi Calm Calm - N/A   Clear
8:58 PM 54.5 °F - 25.5 °F 33% 30.01 in 10.0 mi Calm Calm - N/A   Clear
9:58 PM 55.4 °F - 24.6 °F 30% 30.03 in 10.0 mi North 4.6 mph - N/A   Clear
10:58 PM 54.0 °F - 24.1 °F 31% 30.01 in 10.0 mi NE 5.8 mph - N/A   Clear
11:58 PM 52.9 °F - 25.5 °F 35% 30.03 in 10.0 mi NNW 2.3 mph - N/A   Clear